Weather History for Kenosha, WI

Change the Weather History Date:

Saturday, March 2, 2013

  Actual Average Record
Temperature  
Mean Temperature 20 °F -  
Max Temperature 28 °F 37 °F 61 °F (1961)
Min Temperature 12 °F 23 °F -6 °F (1950)
Degree Days  
Heating Degree Days 45    
Moisture  
Dew Point 13 °F    
Average Humidity 67    
Maximum Humidity 80    
Minimum Humidity 56    
Precipitation  
Precipitation 0.00 in - - ()
Sea Level Pressure  
Sea Level Pressure 30.20 in    
Wind  
Wind Speed 9 mph (NNW)    
Max Wind Speed 13 mph    
Max Gust Speed -    
Visibility 10 miles    
Events Snow    
Averages and records for this station are not official NWS values.
T = Trace of Precipitation, MM = Missing Value Source: NWS Daily Summary

Daily Weather History Graph

Daily Weather History Graph

Search for Another Location

Airport:

Trip Planner

Search our weather history database for the weather conditions in past years. The results will help you decide how hot, cold, wet, or windy it might be!

Date:

Astronomy

Mar. 02, 2013 Rise Set
Actual Time 6:25 AM CST 5:42 PM CST
Civil Twilight 5:57 AM CST 6:11 PM CST
Nautical Twilight 5:24 AM CST 6:43 PM CST
Astronomical Twilight 4:51 AM CST 7:16 PM CST
Moon 11:30 PM CST (3/2) 8:45 AM CST (3/2)
Length of Visible Light 12h 14m
Length of Day
11h 17m
Waning Gibbous, 74% of the Moon is Illuminated
Mar 2
Waning Gibbous
Mar 4
Last Quarter
Mar 11
New
Mar 19
First Quarter
Mar 27
Full

Hourly Weather History & Observations

Time (CST) Temp. Windchill Dew Point Humidity Pressure Visibility Wind Dir Wind Speed Gust Speed Precip Events Conditions
12:53 AM 24.1 °F 13.1 °F 16.0 °F 71% 30.21 in 10.0 mi North 11.5 mph - N/A   Overcast
1:53 AM 23.0 °F 13.1 °F 16.0 °F 74% 30.21 in 5.0 mi North 9.2 mph - 0.00 in Snow Light Snow
2:12 AM 23.0 °F 13.9 °F 15.8 °F 74% 30.17 in 6.0 mi North 8.1 mph - 0.00 in Snow Light Snow
3:33 AM 21.2 °F 10.1 °F 15.8 °F 80% 30.16 in 10.0 mi North 10.4 mph - N/A   Overcast
3:53 AM 21.9 °F 11.0 °F 14.0 °F 72% 30.20 in 10.0 mi North 10.4 mph - N/A   Overcast
6:38 AM 21.2 °F 10.9 °F 12.2 °F 68% 30.18 in 10.0 mi NNW 9.2 mph - N/A   Overcast
6:53 AM 21.0 °F 10.6 °F 12.0 °F 68% 30.22 in 10.0 mi North 9.2 mph - N/A   Overcast
7:53 AM 21.0 °F 11.4 °F 12.0 °F 68% 30.22 in 10.0 mi NW 8.1 mph - N/A   Overcast
8:53 AM 21.0 °F 10.6 °F 12.0 °F 68% 30.22 in 10.0 mi NW 9.2 mph - N/A   Overcast
9:53 AM 21.9 °F 12.5 °F 12.0 °F 66% 30.22 in 10.0 mi NW 8.1 mph - N/A   Overcast
10:53 AM 26.1 °F 16.8 °F 14.0 °F 60% 30.22 in 10.0 mi NNW 9.2 mph - N/A   Overcast
11:53 AM 27.0 °F 18.0 °F 14.0 °F 58% 30.22 in 10.0 mi NNW 9.2 mph - N/A   Overcast
12:53 PM 28.0 °F 19.3 °F 14.0 °F 56% 30.19 in 10.0 mi NNW 9.2 mph - N/A   Overcast
1:53 PM 27.0 °F 17.3 °F 14.0 °F 58% 30.18 in 10.0 mi NNW 10.4 mph - N/A   Mostly Cloudy
2:53 PM 27.0 °F 16.1 °F 14.0 °F 58% 30.18 in 10.0 mi NW 12.7 mph - N/A   Overcast
3:53 PM 26.1 °F 16.2 °F 12.9 °F 58% 30.19 in 10.0 mi NNW 10.4 mph - N/A   Scattered Clouds
4:53 PM 26.1 °F 18.4 °F 12.9 °F 58% 30.19 in 10.0 mi NNW 6.9 mph - N/A   Overcast
5:53 PM 23.0 °F 15.8 °F 12.0 °F 63% 30.20 in 10.0 mi NW 5.8 mph - N/A   Clear
7:06 PM 21.2 °F 11.7 °F 12.2 °F 68% 30.17 in 10.0 mi NW 8.1 mph - N/A   Overcast
7:53 PM 21.0 °F 12.4 °F 12.0 °F 68% 30.21 in 10.0 mi NW 6.9 mph - N/A   Overcast
8:36 PM 19.4 °F 12.8 °F 10.4 °F 68% 30.17 in 10.0 mi NNW 4.6 mph - N/A   Scattered Clouds
8:53 PM 19.0 °F 11.1 °F 10.0 °F 68% 30.21 in 10.0 mi NW 5.8 mph - N/A   Clear
9:53 PM 17.1 °F - 9.0 °F 71% 30.20 in 10.0 mi Calm Calm - N/A   Clear
10:53 PM 12.0 °F 1.5 °F 7.0 °F 80% 30.20 in 10.0 mi West 6.9 mph - N/A   Clear
11:53 PM 12.0 °F 2.7 °F 7.0 °F 80% 30.18 in 10.0 mi WNW 5.8 mph - N/A   Clear